STARLINK-1728, 46582

Orbit data source: Space-Track

STARLINK-1728, 46582 is a payload satellite owned by SpaceX/Seattle (US) in LEO that was launched on Tue, 06 Oct 2020 UTC via an FALCON 9 launch vehicle from the Air Force Eastern Test Range (AFETR). Payload-class satellites include a variety of spacecraft equipped with specific instruments for various scientific and technological missions. These include communications satellites like Starlink; space stations such as the ISS; scientific satellites like the Hubble; Earth observation satellites from companies like Planet Labs, Umbra, and HawkEye 360; GPS; miniature CubeSats for education and research; and military/defense satellites.

Loading next visibility...
Identifier
46582, 2020-070BC
Orbit
LEO
Country
Flag of USUS
Related business
Manufacturer
SpaceX/Seattle
Mission
Partially operational Commercial Communications
Bus & Motor
STARLINK, Unknown motor
Mass
260 kg wet, ~248 kg dry
Launch date (UTC)
2020-10-06 (5 years ago)
Launch vehicle
FALCON 9
Launch site
Air Force Eastern Test Range (AFETR)
Object type
Payload
Rocket body
Debris
Shape & HBR
Box + 1 Pan, 10.1 m
Radar Cross Section
13.562 m², Large (>1 m²)

Expand to show TLE details & history
Last TLE update: 4 hours ago

TLE from 4 hours ago
0 STARLINK-1728
1 46582U 20070BC  25308.30912414  .00015761  00000-0  56909-3 0  9998
2 46582  53.0521 357.7291 0001668  69.4168 290.7009 15.28669726280911
Epoch: 2025-11-04T07:25Z
TLE epoch observation values (Epoch: 2025-11-04T07:25:08.325Z)
Latitude
-0.00007°
Longitude
-157.35364°
Altitude
480.271 km
Speed
7.627 km/s
True Right ascension
23h 50m 54s
True Declination
0° 00' 00"
Sunlit
Object was in full shadow at epoch
Visualization orbit readout
Latitude
Unknown
Longitude
Unknown
Altitude
Unknown
Speed
Unknown
Apparent Right ascension
Unknown
Apparent Declination
Unknown
Sunlit
N/A
Visualization observer readout
Local Sidereal Time
07:16:57
Azimuth
Unknown
Elevation
Unknown
Doppler factor
Unknown
Orbital elements
Apogee altitude
481.206 km
Perigee altitude
478.918 km
Semi-major axis
6,858.199 km
Eccentricity
0.00017
Inclination
53.0521°
RAAN
357.7291°
Arg. of periapsis
69.4168°
True anomaly
290.68302°
Mean anomaly
290.7009°
Eccentric anomaly
290.69196°
Mean motion
3.82145 °/min
Orbital period
94.21 mins
BSTAR
0.00056909
Loading maneuver chart data...
Computing Atmospheric mass density...
Loading historical data...
Loading historical data...
Loading historical data...
Loading historical data...
Loading historical data...
Loading historical data...
Loading historical data...

Documentation

Showing up to 5 results
|